CAPE
2 0 0 0 0 0 0 1 29 2 0 44 25 32 0 0 0 0 0 2 12 11 11 31 21 31 40 10 12 7 1 9 29 0 10 5 0 0 0 6 7 7 17 25
3 0 0 0 0 0 0 22 15 1 0 24 28 6 1 0 0 0 0 5 9 9 21 19 37 20 31 16 12 5 0 21 25 13 14 0 0 1 10 2 5 1 1 5
1 0 0 0 0 0 0 15 48 0 12 20 8 14 1 3 0 0 0 3 9 18 22 16 26 11 22 25 26 0 18 5 6 11 0 0 0 0 25 5 0 2 2 0
3 0 0 0 0 0 0 9 1 10 3 2 9 4 1 0 0 1 0 3 13 14 53 26 27 30 46 14 7 32 24 7 15 1 1 0 0 0 0 1 9 20 0 0
11 0 0 0 0 0 1 0 9 1 0 4 1 1 0 0 0 1 0 4 12 28 28 30 33 31 20 20 2 22 48 12 6 0 0 0 4 0 0 0 0 0 0 0
21 5 0 0 0 0 16 32 6 0 2 5 8 17 8 2 1 0 0 1 6 11 16 14 12 15 8 12 16 16 55 60 37 8 9 1 0 0 1 0 2 0 0 0
17 17 7 0 0 0 27 7 8 88 13 7 4 5 0 0 0 4 3 3 5 1 3 0 1 2 0 0 0 6 35 49 74 40 6 3 1 18 16 5 0 0 0 0
18 38 36 2 0 0 25 23 11 38 24 8 1 3 2 2 2 3 6 6 5 0 0 27 16 11 0 0 0 0 17 45 55 24 36 5 0 20 1 1 0 60 29 5
37 42 45 22 2 8 27 61 62 38 69 0 0 5 6 8 28 36 16 11 9 0 21 24 6 8 6 1 0 0 6 20 40 39 36 29 16 4 16 2 1 2 4 1
38 28 42 34 19 12 18 40 61 52 47 0 0 4 10 6 4 16 13 12 27 23 28 33 22 21 19 2 1 10 20 39 69 72 32 12 1 19 13 24 21 1 1 1
31 52 31 33 29 22 19 30 57 67 50 12 3 6 3 2 7 46 15 17 16 43 25 25 21 26 20 10 14 13 17 31 64 69 42 36 29 3 0 1 12 18 12 15
37 37 18 24 30 24 13 11 34 61 65 18 10 9 0 4 2 16 12 4 12 32 32 47 53 40 38 23 29 9 32 55 53 16 39 50 1 31 31 56 47 46 63 58
44 31 23 36 27 24 15 14 25 31 57 13 10 0 0 0 4 4 42 20 11 10 26 57 37 17 15 15 3 9 2 6 38 38 0 7 27 10 20 24 60 33 48 54
52 41 28 16 17 23 20 14 30 23 19 14 1 0 0 0 7 5 9 13 38 61 50 81 48 32 23 26 18 15 6 20 2 13 1 24 26 28 47 24 39 40 47 46
56 32 24 24 24 17 19 20 15 32 8 26 10 0 0 0 0 0 2 38 19 62 69 53 31 34 48 32 33 15 3 10 48 56 32 72 52 93 68 66 88 67 47 15
53 45 30 34 32 26 74 36 28 43 25 29 12 5 0 0 1 9 12 30 43 75 64 29 20 19 59 50 3 0 1 4 42 41 56 76 143 100 74 78 72 34 22 10
62 63 70 59 67 89 39 13 3 41 63 35 14 13 8 13 15 23 19 10 45 58 58 60 31 25 35 39 23 0 0 0 0 15 15 46 53 59 6 6 0 0 0 1
53 59 55 55 53 46 7 18 18 29 22 34 16 6 2 13 35 19 30 41 38 39 33 25 28 28 68 28 0 0 0 1 30 84 33 16 0 0 0 2 2 2 9 7
58 42 23 15 4 18 5 30 12 50 36 33 15 2 30 28 47 51 36 59 35 10 27 19 26 24 31 1 0 0 7 33 14 18 6 0 0 1 4 5 6 6 6 6
40 41 17 33 27 65 63 38 61 68 56 61 15 0 3 17 53 68 52 38 19 53 20 23 22 11 0 0 0 19 20 28 27 7 0 0 0 6 3 3 12 13 13 13
55 58 65 55 43 26 45 21 29 23 27 18 7 8 0 9 40 33 54 59 36 51 39 37 34 5 36 24 24 2 45 33 18 0 0 0 2 2 2 5 10 10 10 9
33 41 17 31 33 32 20 39 11 12 1 0 1 12 17 3 7 19 21 15 17 9 58 47 12 194 32 18 1 14 36 39 21 0 0 0 2 1 4 7 8 3 4 0
62 13 11 26 21 30 10 12 6 14 0 10 14 29 21 32 21 20 19 32 15 27 48 18 10 93 29 8 5 26 26 21 2 0 0 0 2 0 2 1 0 1 0 0
9 11 7 3 9 1 0 0 11 52 51 62 39 63 26 32 28 21 34 13 26 28 22 13 132 43 15 1 11 29 57 29 1 0 0 0 2 0 0 0 0 0 1 0
3 1 6 2 0 2 7 22 31 19 68 44 48 57 24 31 30 21 19 27 23 10 39 103 66 2 2 0 4 27 66 3 13 6 0 0 0 0 0 0 0 0 0 0
35 6 3 4 8 36 17 1 11 20 12 9 3 17 43 51 39 13 18 9 7 63 147 30 11 0 0 1 7 13 16 0 1 3 3 1 2 0 0 0 0 0 0 0
13 18 25 8 12 55 69 0 6 27 26 18 16 8 5 17 8 1 0 24 10 17 15 8 5 3 13 13 15 20 14 19 32 7 2 1 0 1 0 0 1 0 0 0
CIN
0 0 0 0 0 0 0 0 0 0 0 -3 0 0 0 0 0 0 0 0 0 0 0 0 -1 0 0 -14 0 0 0 0 0 0 -10 -23 0 0 -1 0 0 0 0 -17
0 0 0 0 0 0 0 0 0 0 0 0 0 0 -3 0 0 0 0 -1 0 0 0 -1 0 -1 -3 -1 0 -11 0 0 0 -10 -12 0 0 -1 -15 0 -5 0 0 -13
0 0 0 0 0 0 0 -7 0 0 0 0 0 0 0 0 0 0 0 0 0 0 0 0 -1 0 -1 -1 -1 0 -8 -1 0 0 -1 -1 0 0 -5 -6 0 0 0 0
0 0 0 0 0 0 0 0 0 0 0 0 0 0 0 0 0 0 0 0 0 0 -1 -5 0 0 0 0 -31 -1 -1 0 0 0 0 0 0 0 0 -1 -4 0 0 0
0 0 0 0 0 0 0 0 0 0 0 0 0 0 0 0 0 0 -1 0 0 0 0 0 -1 0 0 -1 0 0 0 0 0 0 0 0 0 0 0 0 0 0 0 0
0 0 0 0 0 0 0 -1 0 0 0 0 0 0 0 0 0 0 0 0 0 -1 0 -1 0 0 0 -1 0 0 -1 0 0 0 0 -1 0 0 0 0 -1 -1 0 0
0 0 0 0 0 0 -1 0 0 -1 0 0 0 0 0 0 0 0 0 -1 0 -1 -1 0 0 0 0 0 0 -1 0 0 0 0 0 0 -11 -1 -1 -1 0 0 0 0
0 0 0 -3 0 0 0 0 0 0 0 0 0 0 -1 -1 0 -1 0 0 -1 0 0 0 0 -4 0 0 0 0 -1 0 0 0 0 -1 0 -10 -4 -1 0 -17 -1 -1
0 0 -1 -1 -5 -5 -1 0 -1 0 0 0 0 0 0 0 0 0 0 0 -1 0 0 0 0 0 -1 0 0 0 -1 -3 -1 0 0 0 -7 -34 -7 -3 -3 -27 -3 -2
0 -2 0 0 -2 -4 -1 0 0 0 0 0 0 0 0 0 -1 0 0 0 0 0 0 0 0 0 0 0 -1 -2 -6 -12 0 0 0 -3 0 -7 -17 -1 -2 0 0 -11
0 0 -3 -3 -3 -5 -3 0 0 0 0 0 0 0 0 0 0 0 0 -1 0 0 0 0 0 0 0 0 0 0 -1 -1 0 0 -1 0 -6 -9 -11 -1 0 -1 -1 0
-1 -1 -3 -2 -3 -5 -28 0 0 -1 0 0 0 0 0 0 0 0 0 0 -1 0 0 0 0 0 0 0 0 0 0 0 0 -6 0 -2 0 0 0 0 0 0 0 -1
-1 -1 -2 -1 -5 -5 -6 0 0 0 0 0 0 0 0 0 0 0 0 0 0 0 0 0 0 0 0 0 0 -1 0 -1 0 0 0 -11 -1 -1 0 0 0 0 0 0
0 0 -1 -1 -1 -2 -5 0 0 0 0 0 0 0 0 0 0 0 0 0 -1 0 0 0 0 0 0 0 0 0 0 0 0 -1 -3 0 -1 -1 0 0 0 0 0 0
0 0 0 -1 0 0 0 0 0 0 0 0 0 0 0 0 0 0 0 0 0 0 0 0 0 0 0 0 0 0 -5 0 0 0 -1 0 -1 -1 0 0 0 0 -2 -5
0 0 0 0 0 0 0 0 0 0 0 0 0 0 0 0 0 0 0 0 0 0 0 0 0 0 0 0 0 0 0 0 0 0 0 -12 -3 0 -1 -7 -2 0 0 0
0 0 0 0 0 0 0 0 -2 -1 -1 0 0 0 0 0 -12 -5 -2 -1 -1 0 0 0 0 0 0 0 0 0 0 0 0 0 -24 -12 -1 -1 -1 0 0 0 0 0
0 0 0 -1 -1 -1 0 -1 -3 0 0 0 0 0 -1 0 0 -1 0 0 0 0 0 0 0 0 0 0 0 0 0 -14 -12 -1 -2 -11 -1 0 0 0 0 0 0 0
0 0 0 0 0 -1 0 -5 -31 0 0 0 0 0 0 0 0 0 0 0 0 0 0 0 0 0 0 0 0 0 -17 -6 -1 -23 -29 0 0 0 0 0 0 0 0 0
0 0 0 0 0 -4 -2 0 0 0 0 0 0 0 0 0 0 0 0 0 0 0 0 0 0 0 0 0 0 0 -8 -1 -12 -19 0 0 0 0 0 0 0 0 0 0
0 0 0 0 -6 0 0 0 0 0 0 0 0 0 0 0 0 0 0 0 0 0 0 0 0 0 -2 -1 -1 -19 0 -15 -7 0 0 0 0 -1 0 0 0 0 0 0
0 0 -3 0 0 0 0 0 0 0 0 0 0 0 0 0 0 0 0 0 0 0 -2 0 0 -4 -5 -39 -37 -17 -22 -18 -33 0 0 0 -2 0 0 0 0 0 0 0
0 0 0 0 0 0 0 0 0 0 0 0 0 0 0 0 0 0 0 0 0 0 0 0 -1 -3 -15 -29 -6 -17 -16 -23 -71 0 0 0 0 0 0 0 0 0 0 0
0 0 0 0 0 0 0 0 0 0 0 0 0 0 0 0 0 0 0 0 0 0 0 -2 -4 0 -20 0 0 -1 -1 -29 -25 0 0 0 -20 0 0 0 0 0 0 0
0 0 0 0 0 0 -1 -4 -1 -1 0 0 0 0 0 0 0 0 0 0 0 0 -1 -10 -3 -1 0 0 -10 -5 -2 -15 -38 -25 -1 0 0 0 -1 0 0 0 0 0
0 0 0 0 0 0 0 -2 0 0 0 0 0 0 0 0 0 0 0 0 -1 -9 0 0 -1 0 0 0 0 0 -21 0 -1 -1 -1 -3 -4 -6 -3 0 0 0 0 0
0 0 -1 0 0 0 0 0 -6 0 0 0 0 -1 0 0 0 -1 0 -14 -1 -1 0 0 0 0 0 0 0 -3 -1 -1 -2 -2 -1 -1 -1 -10 0 -7 -12 0 0 0
Wind_Speed
6 6 6 5 5 6 5 5 1 4 3 2 2 3 4 2 7 4 6 7 9 10 14 10 10 13 13 12 18 17 13 8 12 13 4 6 12 7 4 5 5 4 4 5
6 7 7 6 6 5 6 1 3 4 4 2 2 3 3 8 9 7 4 8 9 11 11 7 12 14 8 9 15 10 13 8 11 9 7 18 9 4 1 4 2 2 0 5
7 7 7 7 7 5 4 3 0 4 4 5 8 6 4 4 7 7 8 9 12 10 7 10 9 16 11 17 14 2 5 8 12 9 8 11 15 15 7 1 2 6 7 19
10 7 7 7 8 5 4 2 4 5 2 4 9 6 5 7 6 4 7 7 10 11 4 6 10 16 17 15 6 11 3 7 14 16 17 17 19 18 15 12 11 12 14 18
12 10 8 9 9 5 5 4 3 4 8 4 6 3 3 9 9 5 5 9 11 9 9 13 14 17 15 16 17 15 11 6 14 15 18 17 16 15 15 16 16 18 18 19
14 12 10 10 10 9 4 4 0 3 6 6 8 9 11 8 5 5 8 9 9 10 12 13 14 14 16 17 17 15 13 8 10 13 14 18 12 12 14 14 11 11 12 14
14 15 13 10 12 14 3 4 6 1 5 8 8 11 7 8 9 10 10 9 11 12 13 15 14 15 17 15 14 13 13 12 8 10 13 10 8 12 13 11 11 13 15 16
15 15 15 12 11 12 7 3 4 1 5 10 11 10 10 10 10 12 14 12 7 9 10 8 6 6 1 5 9 9 8 9 5 4 9 15 21 3 2 6 10 20 16 16
16 13 15 14 12 10 8 3 3 1 0 7 14 11 8 8 9 8 9 6 3 1 3 3 5 4 10 3 4 6 6 4 4 4 5 5 4 9 12 6 7 10 14 19
17 14 13 13 13 10 8 2 6 2 3 10 11 7 6 8 6 5 5 6 1 4 2 4 6 9 12 8 8 2 2 2 8 9 9 10 15 13 17 9 9 18 16 16
18 16 15 14 14 11 8 5 8 6 4 10 14 14 11 9 8 7 5 4 5 3 4 4 3 5 5 7 11 10 9 6 7 8 8 9 10 13 11 13 16 15 15 15
18 18 15 15 14 13 8 6 6 6 4 5 9 12 13 16 18 11 7 6 4 4 4 2 3 5 5 11 11 13 12 10 6 7 9 18 21 14 14 14 14 15 15 15
18 17 17 17 16 15 11 8 2 3 3 9 12 14 18 18 18 13 9 9 10 12 8 4 3 6 8 10 10 14 14 15 9 14 12 17 20 18 17 17 15 16 16 16
20 18 17 15 14 14 13 8 4 3 2 4 4 4 6 10 11 16 14 13 10 8 4 4 4 6 7 10 14 16 12 15 14 17 18 18 16 17 16 17 17 18 17 16
21 21 19 18 17 15 9 6 4 6 6 3 6 14 16 12 9 10 10 12 11 6 4 5 7 8 8 8 13 14 13 17 9 12 17 17 16 17 19 17 16 17 18 17
21 21 20 19 18 17 4 3 7 7 5 2 4 4 7 5 7 11 11 9 8 5 4 4 7 16 10 6 10 15 16 16 14 13 16 16 20 17 17 17 18 17 16 17
20 19 19 18 17 9 1 0 2 12 4 2 4 4 5 4 7 3 2 3 1 3 2 6 10 10 4 5 14 24 18 18 18 14 10 12 13 13 16 17 18 18 17 16
20 18 16 16 17 10 1 5 10 8 3 3 4 4 4 11 4 3 3 4 3 4 4 3 6 7 6 8 15 16 16 5 15 15 9 13 14 15 16 15 17 19 16 16
23 22 19 7 3 3 3 16 12 4 2 3 5 4 3 7 5 4 5 5 5 5 7 6 6 6 10 12 14 17 9 8 9 11 12 13 14 14 15 16 17 16 15 13
25 14 4 4 5 17 17 4 4 5 5 5 5 8 6 7 6 6 5 5 5 4 9 5 6 10 17 19 17 13 10 3 9 10 12 13 12 13 14 15 13 14 14 12
7 7 4 7 19 6 4 5 6 6 5 7 6 11 9 7 5 3 5 3 4 4 5 7 6 6 9 15 13 12 3 6 7 7 7 8 8 9 10 12 14 13 14 12
7 8 9 7 5 5 7 7 6 8 7 8 9 7 9 4 2 3 4 4 4 6 2 4 4 2 5 5 1 9 7 6 6 8 8 8 7 7 11 11 12 12 13 10
10 4 7 6 7 8 8 10 6 6 6 6 8 8 6 4 4 3 4 5 6 4 3 4 3 6 10 8 4 5 3 5 8 10 10 9 9 9 8 10 10 11 10 7
4 6 8 7 7 7 7 8 7 5 4 9 9 8 4 4 6 5 5 6 4 4 5 7 4 7 8 7 1 3 6 6 6 7 6 5 3 4 4 6 7 9 9 8
4 4 6 8 6 5 1 4 1 2 4 5 6 4 5 5 5 6 6 4 5 5 4 6 5 6 6 8 8 8 8 4 5 8 5 3 5 3 3 5 4 7 7 6
2 6 5 3 6 5 1 2 4 3 1 3 3 3 3 5 4 6 7 5 4 5 5 5 6 8 9 8 8 7 4 5 5 6 8 6 4 5 7 5 2 5 5 5
4 4 3 2 2 0 5 6 6 4 5 5 3 5 7 4 4 5 3 4 4 3 4 5 8 9 9 9 9 7 9 9 7 5 7 10 7 6 7 7 1 2 4 5
Wind_Direction
256 248 236 241 258 284 276 266 23 99 299 125 5 230 297 359 289 296 270 290 306 336 329 341 353 345 1 358 343 357 350 306 316 299 219 41 68 17 66 338 37 352 332 267
253 241 232 234 249 263 308 245 274 134 252 185 220 264 301 293 295 296 326 310 323 324 324 339 334 325 342 340 346 13 336 340 336 3 93 4 345 154 83 141 190 327 258 273
229 234 227 225 229 243 271 83 189 328 315 236 269 218 238 240 268 283 271 281 294 302 321 325 313 312 326 341 355 18 338 318 321 325 323 292 307 319 158 11 292 309 277 289
219 221 216 205 205 225 263 27 236 196 207 234 262 227 222 251 279 224 302 290 307 305 320 295 292 319 325 326 5 309 17 306 327 326 323 305 296 290 289 279 241 250 274 277
212 212 206 199 197 204 254 151 217 229 271 216 241 216 268 269 258 233 256 278 287 319 312 306 318 316 315 314 315 312 325 305 318 303 302 290 297 307 309 294 280 278 278 276
211 206 205 201 196 206 222 289 262 274 298 260 233 225 230 228 272 323 303 292 302 300 295 318 316 308 297 289 282 282 283 282 289 289 310 330 299 269 262 268 294 299 273 289
213 206 202 204 202 211 338 227 282 242 257 254 239 255 262 267 260 268 285 308 297 300 340 319 309 305 291 287 284 277 271 265 272 279 299 272 248 289 314 291 280 282 288 280
215 211 196 196 207 215 251 246 269 234 258 270 278 261 258 267 267 252 253 260 289 3 313 301 309 272 228 251 261 262 243 262 254 246 262 282 291 341 305 340 314 16 334 327
212 204 192 189 200 209 235 225 250 182 162 248 247 276 256 259 260 265 279 303 38 275 301 295 265 280 306 265 238 237 243 251 224 274 279 276 330 315 312 314 298 14 335 341
204 201 193 187 192 203 220 200 227 188 200 276 276 265 270 284 298 291 301 307 241 249 252 243 261 264 280 285 296 304 228 251 242 260 264 265 267 340 318 270 352 320 327 321
204 200 191 186 180 187 212 215 206 207 225 261 279 279 272 270 254 256 248 349 238 188 236 258 258 264 267 281 285 295 306 290 279 271 267 275 22 351 344 304 302 312 321 319
198 194 188 195 184 184 198 239 210 205 235 260 300 287 276 266 271 280 283 220 262 195 234 281 321 294 306 297 288 284 281 283 280 253 293 304 294 279 300 305 306 312 322 316
191 189 188 193 187 186 194 227 184 204 292 284 251 254 250 237 246 260 263 250 248 268 285 317 288 266 284 278 281 301 304 317 310 299 288 294 298 304 302 299 312 303 293 296
183 183 184 188 193 185 193 223 201 201 319 279 294 277 274 261 208 216 235 261 271 276 275 241 250 266 268 274 291 290 294 300 287 284 294 292 301 302 300 297 294 292 294 312
181 182 184 186 187 187 198 240 237 209 216 303 308 310 272 249 207 217 238 208 234 252 251 236 252 257 266 265 271 266 270 270 273 274 284 293 294 287 291 293 314 330 322 311
178 181 182 184 184 181 176 205 228 227 215 261 278 346 274 226 204 224 234 218 210 204 217 249 253 252 261 269 272 272 286 285 293 295 293 333 320 321 328 315 306 313 317 319
178 177 180 183 182 184 220 308 330 158 121 233 272 248 206 138 70 30 9 238 128 214 251 230 251 268 237 266 269 275 288 296 285 282 317 278 297 328 324 331 336 324 323 327
171 171 176 181 185 178 152 138 107 120 129 236 261 253 230 163 141 155 167 166 168 212 236 253 248 256 230 250 254 265 265 347 286 295 339 338 329 334 340 336 338 330 322 318
140 135 127 118 180 202 163 137 153 174 233 235 221 233 165 162 150 164 181 186 200 213 211 214 220 222 221 239 247 254 273 337 337 354 345 347 345 332 342 337 331 320 317 316
137 141 163 170 187 109 113 142 178 199 207 221 252 238 224 184 175 187 189 191 225 230 208 193 211 250 247 246 256 274 315 327 8 344 338 341 337 332 331 329 327 324 316 318
145 171 174 108 142 169 181 174 204 185 222 214 219 223 234 232 194 212 222 192 228 242 192 205 214 243 233 236 204 199 208 28 1 343 351 341 333 333 333 333 326 321 322 316
163 111 119 136 184 198 199 192 191 197 227 193 196 191 199 203 180 186 244 239 246 250 137 232 254 240 142 134 97 73 59 29 354 340 327 354 346 5 340 322 320 327 315 310
145 153 153 190 169 206 207 185 198 191 207 159 151 146 161 153 164 197 248 231 241 242 216 232 245 97 50 57 83 79 73 32 11 347 343 350 351 341 325 316 316 319 314 313
179 171 163 215 177 220 203 217 208 209 193 166 156 154 152 159 172 225 229 226 253 245 225 237 81 85 131 188 159 352 27 18 340 341 330 321 315 290 293 297 305 325 320 318
170 182 204 208 232 200 216 308 100 224 126 165 158 159 187 173 204 204 228 226 237 237 269 55 111 130 56 38 20 18 10 10 335 341 335 300 309 270 289 282 288 325 316 320
238 221 218 224 194 210 143 295 259 238 191 172 184 188 213 218 204 203 206 235 240 5 51 41 38 46 33 10 1 356 328 312 316 328 321 319 319 293 292 273 223 318 306 319
219 214 251 237 213 42 186 201 234 238 209 209 211 198 217 218 230 234 279 332 47 36 29 22 16 12 359 344 335 337 328 343 343 336 321 316 311 295 301 297 164 273 290 300